Location: Ellingshausen
(50.5460°N, 10.4723°E)
Time: 22:51:11
(UTC+00:00)

Cosmos 1408 Rocket - Pass Details

Date: 18 January 2026
Orbit: 594 x 623 km, 82.6° (Epoch: 7 February)

Event Time Altitude Azimuth Distance (km) Brightness Sun altitude
Exits shadow 05:28:01 26° 260° (W) 1,203 4.5 -15.8°
Maximum altitude 05:29:13 30° 289° (WNW) 1,092 4.2 -15.6°
Drops below altitude 10° 05:33:01 10° 352° (N) 1,950 5.9 -15.0°
Sets 05:35:28 0° 3° (N) 2,854 6.8 -14.6°
